Hourly Weather Rudka

Today, 22 April, Thursday

Time Temperature Precipitation Wind Pressure Humidity
00:00 +8°C° 0 mm 3 mps 742 mmHg 84%
01:00 +8°C° 0 mm 3 mps 743 mmHg 85%
02:00 +8°C° 0 mm 3 mps 743 mmHg 85%
03:00 +8°C° 0 mm 3 mps 742 mmHg 85%
04:00 +8°C° 0 mm 3 mps 742 mmHg 85%
05:00 +7°C° 0 mm 3 mps 742 mmHg 85%
06:00 +7°C° 0.1 mm 4 mps 743 mmHg 83%
07:00 +8°C° 0.1 mm 5 mps 743 mmHg 81%
08:00 +8°C° 0.1 mm 5 mps 743 mmHg 79%
09:00 +8°C° 0 mm 5 mps 744 mmHg 78%
10:00 +8°C° 0 mm 5 mps 744 mmHg 76%
11:00 +7°C° 0 mm 5 mps 744 mmHg 74%
12:00 +7°C° 0.2 mm 5 mps 745 mmHg 77%
13:00 +6°C° 0.2 mm 5 mps 745 mmHg 80%
14:00 +5°C° 0.2 mm 5 mps 745 mmHg 82%
15:00 +6°C° 0.1 mm 5 mps 745 mmHg 74%
16:00 +7°C° 0.1 mm 5 mps 745 mmHg 65%
17:00 +7°C° 0.1 mm 5 mps 745 mmHg 56%
18:00 +6°C° 0 mm 4 mps 745 mmHg 60%
19:00 +5°C° 0 mm 3 mps 745 mmHg 63%
20:00 +4°C° 0 mm 3 mps 746 mmHg 67%
21:00 +3°C° 0 mm 3 mps 746 mmHg 70%
22:00 +3°C° 0 mm 3 mps 746 mmHg 72%
23:00 +2°C° 0 mm 3 mps 746 mmHg 75%

Tomorrow, 23 April, Friday

Time Temperature Precipitation Wind Pressure Humidity
00:00 +1°C° 0 mm 4 mps 746 mmHg 77%
01:00 0°C° 0 mm 4 mps 746 mmHg 79%
02:00 0°C° 0 mm 4 mps 746 mmHg 81%
03:00 0°C° 0 mm 4 mps 746 mmHg 80%
04:00 -1°C° 0 mm 4 mps 747 mmHg 80%
05:00 -1°C° 0 mm 4 mps 747 mmHg 79%
06:00 0°C° 0 mm 5 mps 747 mmHg 74%
07:00 +1°C° 0 mm 5 mps 747 mmHg 68%
08:00 +2°C° 0 mm 6 mps 747 mmHg 62%
09:00 +3°C° 0.1 mm 6 mps 748 mmHg 59%
10:00 +4°C° 0.1 mm 6 mps 748 mmHg 55%
11:00 +5°C° 0.1 mm 6 mps 748 mmHg 52%
12:00 +7°C° 0.2 mm 6 mps 748 mmHg 51%
13:00 +7°C° 0.2 mm 6 mps 748 mmHg 51%
14:00 +7°C° 0.2 mm 6 mps 748 mmHg 50%
15:00 +7°C° 0.2 mm 6 mps 747 mmHg 49%
16:00 +7°C° 0.2 mm 5 mps 747 mmHg 49%
17:00 +7°C° 0.2 mm 5 mps 747 mmHg 48%
18:00 +6°C° 0.2 mm 5 mps 747 mmHg 61%
19:00 +3°C° 0.2 mm 5 mps 747 mmHg 74%
20:00 +2°C° 0.2 mm 5 mps 747 mmHg 87%
21:00 +1°C° 0.2 mm 5 mps 748 mmHg 87%
22:00 0°C° 0.2 mm 5 mps 748 mmHg 88%
23:00 -1°C° 0.2 mm 5 mps 748 mmHg 88%

Day after tomorrow, 24 April, Saturday

Time Temperature Precipitation Wind Pressure Humidity
00:00 -1°C° 0 mm 5 mps 749 mmHg 87%
01:00 -2°C° 0 mm 5 mps 749 mmHg 86%
02:00 -2°C° 0 mm 5 mps 749 mmHg 86%
03:00 -2°C° 0 mm 4 mps 749 mmHg 86%
04:00 -3°C° 0 mm 4 mps 749 mmHg 86%
05:00 -3°C° 0 mm 4 mps 750 mmHg 87%
06:00 -2°C° 0 mm 4 mps 750 mmHg 80%
07:00 0°C° 0 mm 5 mps 750 mmHg 72%
08:00 +1°C° 0 mm 5 mps 750 mmHg 65%
09:00 +3°C° 0 mm 5 mps 750 mmHg 56%
10:00 +5°C° 0 mm 5 mps 750 mmHg 47%
11:00 +7°C° 0 mm 5 mps 750 mmHg 38%
12:00 +7°C° 0 mm 6 mps 750 mmHg 38%
13:00 +7°C° 0 mm 6 mps 750 mmHg 38%
14:00 +8°C° 0 mm 6 mps 750 mmHg 37%
15:00 +8°C° 0 mm 6 mps 749 mmHg 39%
16:00 +8°C° 0 mm 6 mps 749 mmHg 41%
17:00 +8°C° 0 mm 5 mps 749 mmHg 42%
18:00 +6°C° 0 mm 4 mps 749 mmHg 48%
19:00 +5°C° 0 mm 3 mps 749 mmHg 54%
20:00 +4°C° 0 mm 2 mps 749 mmHg 60%
21:00 +4°C° 0 mm 2 mps 749 mmHg 64%
22:00 +3°C° 0 mm 2 mps 749 mmHg 67%
23:00 +3°C° 0 mm 2 mps 749 mmHg 71%

25 April, Sunday

Time Temperature Precipitation Wind Pressure Humidity
00:00 +2°C° 0 mm 2 mps 749 mmHg 79%
01:00 +1°C° 0 mm 3 mps 749 mmHg 86%
02:00 0°C° 0 mm 3 mps 749 mmHg 94%
03:00 0°C° 0 mm 3 mps 750 mmHg 91%
04:00 -1°C° 0 mm 3 mps 750 mmHg 87%
05:00 -2°C° 0 mm 4 mps 750 mmHg 84%
06:00 -1°C° 0 mm 4 mps 750 mmHg 79%
07:00 0°C° 0 mm 5 mps 750 mmHg 74%
08:00 0°C° 0 mm 5 mps 751 mmHg 69%
09:00 +2°C° 0 mm 5 mps 751 mmHg 61%
10:00 +3°C° 0 mm 5 mps 751 mmHg 53%
11:00 +5°C° 0 mm 5 mps 751 mmHg 46%
12:00 +6°C° 0.1 mm 5 mps 751 mmHg 47%
13:00 +5°C° 0.1 mm 6 mps 751 mmHg 47%
14:00 +5°C° 0.1 mm 6 mps 750 mmHg 48%
15:00 +5°C° 0.2 mm 6 mps 750 mmHg 49%
16:00 +5°C° 0.2 mm 6 mps 750 mmHg 49%
17:00 +5°C° 0.2 mm 6 mps 749 mmHg 50%
18:00 +5°C° 0.1 mm 5 mps 749 mmHg 55%
19:00 +4°C° 0.1 mm 4 mps 749 mmHg 61%
20:00 +3°C° 0.1 mm 3 mps 749 mmHg 66%
21:00 +2°C° 0 mm 3 mps 749 mmHg 70%
22:00 +2°C° 0 mm 3 mps 749 mmHg 74%
23:00 +2°C° 0 mm 2 mps 749 mmHg 78%

26 April, Monday

Time Temperature Precipitation Wind Pressure Humidity
00:00 +1°C° 0 mm 2 mps 749 mmHg 78%
01:00 -1°C° 0 mm 2 mps 749 mmHg 79%
02:00 -2°C° 0 mm 2 mps 749 mmHg 79%
03:00 -2°C° 0 mm 2 mps 749 mmHg 76%
04:00 -2°C° 0 mm 2 mps 749 mmHg 74%
05:00 -2°C° 0 mm 2 mps 749 mmHg 71%
06:00 +1°C° 0 mm 2 mps 749 mmHg 63%
07:00 +2°C° 0 mm 2 mps 748 mmHg 55%
08:00 +4°C° 0 mm 2 mps 748 mmHg 47%
09:00 +6°C° 0 mm 2 mps 748 mmHg 45%
10:00 +7°C° 0 mm 3 mps 747 mmHg 43%
11:00 +9°C° 0 mm 3 mps 747 mmHg 41%
12:00 +8°C° 0.1 mm 4 mps 746 mmHg 43%
13:00 +10°C° 0.1 mm 4 mps 746 mmHg 46%
14:00 +10°C° 0.1 mm 4 mps 745 mmHg 48%
15:00 +8°C° 0.3 mm 4 mps 745 mmHg 53%
16:00 +8°C° 0.3 mm 5 mps 745 mmHg 58%
17:00 +7°C° 0.3 mm 5 mps 745 mmHg 64%
18:00 +6°C° 0 mm 4 mps 745 mmHg 73%
19:00 +4°C° 0 mm 3 mps 745 mmHg 82%
20:00 +3°C° 0 mm 2 mps 745 mmHg 92%
21:00 +3°C° 0 mm 2 mps 746 mmHg 92%
22:00 +3°C° 0 mm 1 mps 746 mmHg 92%
23:00 +3°C° 0 mm 1 mps 746 mmHg 93%

27 April, Tuesday

Time Temperature Precipitation Wind Pressure Humidity
00:00 +2°C° 0 mm 1 mps 746 mmHg 92%
01:00 +2°C° 0 mm 1 mps 746 mmHg 92%
02:00 +1°C° 0 mm 1 mps 746 mmHg 92%
03:00 +1°C° 0 mm 1 mps 746 mmHg 92%
04:00 +1°C° 0 mm 1 mps 746 mmHg 93%
05:00 -2°C° 0 mm 2 mps 746 mmHg 93%
06:00 +1°C° 0 mm 2 mps 746 mmHg 85%
07:00 +2°C° 0 mm 3 mps 746 mmHg 78%
08:00 +3°C° 0 mm 3 mps 746 mmHg 71%
09:00 +5°C° 0 mm 4 mps 746 mmHg 63%
10:00 +7°C° 0 mm 4 mps 745 mmHg 55%
11:00 +8°C° 0 mm 5 mps 745 mmHg 47%
12:00 +9°C° 0 mm 5 mps 745 mmHg 46%
13:00 +10°C° 0 mm 5 mps 744 mmHg 44%
14:00 +11°C° 0 mm 6 mps 743 mmHg 43%
15:00 +12°C° 0 mm 5 mps 743 mmHg 47%
16:00 +12°C° 0 mm 5 mps 742 mmHg 51%
17:00 +10°C° 0 mm 5 mps 742 mmHg 55%
18:00 +9°C° 0 mm 5 mps 742 mmHg 59%
19:00 +8°C° 0 mm 5 mps 741 mmHg 63%
20:00 +7°C° 0 mm 5 mps 741 mmHg 67%
21:00 +7°C° 0 mm 5 mps 741 mmHg 68%
22:00 +7°C° 0 mm 5 mps 740 mmHg 69%
23:00 +7°C° 0 mm 6 mps 740 mmHg 70%
Show more